Time,TemperatureF,DewpointF,PressureIn,WindDirection,WindDirectionDegrees,WindSpeedMPH,WindSpeedGustMPH,Humidity,HourlyPrecipIn,Conditions,Clouds,dailyrainin,SoftwareType,DateUTC
2013-07-14 00:02:00,72.5,13.0,30.21,SSW,203,0.0,0.0,1,0.00,,,0.00,WUHU216HW,2013-07-14 04:02:00,
2013-07-14 00:07:00,72.4,12.8,30.21,SSW,203,0.0,0.0,1,0.00,,,0.00,WUHU216HW,2013-07-14 04:07:00,
2013-07-14 00:12:00,72.4,12.8,30.21,SSW,203,0.0,0.0,1,0.00,,,0.00,WUHU216HW,2013-07-14 04:12:00,
2013-07-14 00:17:00,72.4,12.8,30.21,SSW,203,0.0,0.0,1,0.00,,,0.00,WUHU216HW,2013-07-14 04:17:00,
2013-07-14 00:22:00,72.4,12.8,30.21,WSW,248,0.0,0.0,1,0.00,,,0.00,WUHU216HW,2013-07-14 04:22:00,
2013-07-14 00:27:00,72.4,12.8,30.21,WSW,248,0.0,0.0,1,0.00,,,0.00,WUHU216HW,2013-07-14 04:27:00,
2013-07-14 00:32:00,72.2,12.7,30.20,WSW,248,0.0,0.0,1,0.00,,,0.00,WUHU216HW,2013-07-14 04:32:00,
2013-07-14 00:37:00,72.2,12.7,30.21,WSW,248,0.0,0.0,1,0.00,,,0.00,WUHU216HW,2013-07-14 04:37:00,
2013-07-14 00:42:00,72.2,12.7,30.21,WSW,248,0.0,0.0,1,0.00,,,0.00,WUHU216HW,2013-07-14 04:42:00,
2013-07-14 00:47:00,72.0,12.5,30.20,WSW,248,0.0,0.0,1,0.00,,,0.00,WUHU216HW,2013-07-14 04:47:00,
2013-07-14 00:52:00,72.0,12.5,30.21,WSW,248,0.0,0.0,1,0.00,,,0.00,WUHU216HW,2013-07-14 04:52:00,
2013-07-14 00:57:00,72.0,12.5,30.21,WSW,248,0.0,0.0,1,0.00,,,0.00,WUHU216HW,2013-07-14 04:57:00,
2013-07-14 01:02:00,72.0,12.5,30.21,WSW,248,0.0,0.0,1,0.00,,,0.00,WUHU216HW,2013-07-14 05:02:00,
2013-07-14 01:07:00,72.0,12.5,30.21,WSW,248,0.0,0.0,1,0.00,,,0.00,WUHU216HW,2013-07-14 05:07:00,
2013-07-14 01:12:00,72.0,12.5,30.21,WSW,248,0.0,0.0,1,0.00,,,0.00,WUHU216HW,2013-07-14 05:12:00,
2013-07-14 01:17:00,72.0,12.5,30.21,North,0,0.0,0.2,1,0.00,,,0.00,WUHU216HW,2013-07-14 05:17:00,
2013-07-14 01:22:00,72.0,12.5,30.21,North,0,1.1,1.1,1,0.00,,,0.00,WUHU216HW,2013-07-14 05:22:00,
2013-07-14 01:27:00,72.0,12.5,30.22,North,0,0.0,1.1,1,0.00,,,0.00,WUHU216HW,2013-07-14 05:27:00,
2013-07-14 01:32:00,72.0,12.5,30.22,North,0,0.0,0.7,1,0.00,,,0.00,WUHU216HW,2013-07-14 05:32:00,
2013-07-14 01:37:00,72.0,12.5,30.22,North,0,0.0,0.4,1,0.00,,,0.00,WUHU216HW,2013-07-14 05:37:00,
2013-07-14 01:42:00,72.0,12.5,30.22,North,0,0.0,0.9,1,0.00,,,0.00,WUHU216HW,2013-07-14 05:42:00,
2013-07-14 01:47:00,72.0,12.5,30.22,North,0,0.0,0.9,1,0.00,,,0.00,WUHU216HW,2013-07-14 05:47:00,
2013-07-14 01:52:00,72.0,12.5,30.22,North,0,0.0,0.0,1,0.00,,,0.00,WUHU216HW,2013-07-14 05:52:00,
2013-07-14 01:57:00,72.0,12.5,30.22,North,0,0.0,0.0,1,0.00,,,0.00,WUHU216HW,2013-07-14 05:57:00,
2013-07-14 02:02:00,72.0,12.5,30.22,North,0,0.0,0.0,1,0.00,,,0.00,WUHU216HW,2013-07-14 06:02:00,
2013-07-14 02:07:00,72.0,12.5,30.22,North,0,0.0,0.0,1,0.00,,,0.00,WUHU216HW,2013-07-14 06:07:00,
2013-07-14 02:12:00,72.0,12.5,30.22,North,0,0.0,0.0,1,0.00,,,0.00,WUHU216HW,2013-07-14 06:12:00,
2013-07-14 02:17:00,72.0,12.5,30.22,North,0,0.0,0.0,1,0.00,,,0.00,WUHU216HW,2013-07-14 06:17:00,
2013-07-14 02:22:00,72.2,12.7,30.22,North,0,0.0,0.4,1,0.00,,,0.00,WUHU216HW,2013-07-14 06:22:00,
2013-07-14 02:27:00,72.2,12.7,30.22,North,0,0.0,0.4,1,0.00,,,0.00,WUHU216HW,2013-07-14 06:27:00,
2013-07-14 02:32:00,72.0,12.5,30.22,North,0,0.0,0.0,1,0.00,,,0.00,WUHU216HW,2013-07-14 06:32:00,
2013-07-14 02:37:00,72.0,12.5,30.22,North,0,0.0,0.0,1,0.00,,,0.00,WUHU216HW,2013-07-14 06:37:00,
2013-07-14 02:42:00,72.0,12.5,30.22,North,0,0.0,0.0,1,0.00,,,0.00,WUHU216HW,2013-07-14 06:42:00,
2013-07-14 02:47:00,72.0,12.5,30.22,North,0,0.0,0.0,1,0.00,,,0.00,WUHU216HW,2013-07-14 06:47:00,
2013-07-14 02:52:00,72.0,12.5,30.22,North,0,0.0,0.0,1,0.00,,,0.00,WUHU216HW,2013-07-14 06:52:00,
2013-07-14 02:57:00,72.0,12.5,30.22,North,0,0.0,0.0,1,0.00,,,0.00,WUHU216HW,2013-07-14 06:57:00,
2013-07-14 03:02:00,72.0,12.5,30.22,North,0,0.0,0.0,1,0.00,,,0.00,WUHU216HW,2013-07-14 07:02:00,
2013-07-14 03:07:00,72.0,12.5,30.22,North,0,0.0,0.0,1,0.00,,,0.00,WUHU216HW,2013-07-14 07:07:00,
2013-07-14 03:12:00,72.0,12.5,30.22,North,0,0.0,0.0,1,0.00,,,0.00,WUHU216HW,2013-07-14 07:12:00,
2013-07-14 03:17:00,72.0,12.5,30.22,North,0,0.0,0.0,1,0.00,,,0.00,WUHU216HW,2013-07-14 07:17:00,
2013-07-14 03:22:00,72.0,12.5,30.22,North,0,0.0,0.0,1,0.00,,,0.00,WUHU216HW,2013-07-14 07:22:00,
2013-07-14 03:27:00,72.0,12.5,30.22,North,0,0.0,0.0,1,0.00,,,0.00,WUHU216HW,2013-07-14 07:27:00,
2013-07-14 03:33:00,72.0,12.5,30.22,North,0,0.7,1.1,1,0.00,,,0.00,WUHU216HW,2013-07-14 07:33:00,
2013-07-14 03:38:00,72.0,12.5,30.22,North,0,0.0,1.1,1,0.00,,,0.00,WUHU216HW,2013-07-14 07:38:00,
2013-07-14 03:43:00,72.0,12.5,30.22,North,0,0.0,0.2,1,0.00,,,0.00,WUHU216HW,2013-07-14 07:43:00,
2013-07-14 03:48:00,71.8,12.4,30.22,North,0,0.0,0.0,1,0.00,,,0.00,WUHU216HW,2013-07-14 07:48:00,
2013-07-14 03:53:00,71.8,12.4,30.22,North,0,0.0,0.0,1,0.00,,,0.00,WUHU216HW,2013-07-14 07:53:00,
2013-07-14 03:58:00,71.6,12.2,30.22,North,0,0.0,0.0,1,0.00,,,0.00,WUHU216HW,2013-07-14 07:58:00,
2013-07-14 04:03:00,71.6,12.2,30.22,North,0,0.0,0.0,1,0.00,,,0.00,WUHU216HW,2013-07-14 08:03:00,
2013-07-14 04:08:00,71.6,12.2,30.22,North,0,0.0,0.0,1,0.00,,,0.00,WUHU216HW,2013-07-14 08:08:00,
2013-07-14 04:13:00,71.6,12.2,30.22,North,0,0.0,0.0,1,0.00,,,0.00,WUHU216HW,2013-07-14 08:13:00,
2013-07-14 04:18:00,71.6,12.2,30.22,North,0,0.0,0.0,1,0.00,,,0.00,WUHU216HW,2013-07-14 08:18:00,
2013-07-14 04:23:00,71.5,12.1,30.22,North,0,0.0,0.0,1,0.00,,,0.00,WUHU216HW,2013-07-14 08:23:00,
2013-07-14 04:28:00,71.5,12.1,30.22,North,0,0.0,0.0,1,0.00,,,0.00,WUHU216HW,2013-07-14 08:28:00,
2013-07-14 04:33:00,71.5,12.1,30.22,North,0,0.0,0.0,1,0.00,,,0.00,WUHU216HW,2013-07-14 08:33:00,
2013-07-14 04:38:00,71.6,12.2,30.22,North,0,0.0,0.0,1,0.00,,,0.00,WUHU216HW,2013-07-14 08:38:00,
2013-07-14 04:43:00,71.5,12.1,30.22,North,0,0.0,0.0,1,0.00,,,0.00,WUHU216HW,2013-07-14 08:43:00,
2013-07-14 04:48:00,71.5,12.1,30.22,North,0,0.0,0.0,1,0.00,,,0.00,WUHU216HW,2013-07-14 08:48:00,
2013-07-14 04:53:00,71.6,12.2,30.22,North,0,0.0,0.0,1,0.00,,,0.00,WUHU216HW,2013-07-14 08:53:00,
2013-07-14 04:58:00,71.6,12.2,30.22,North,0,0.0,0.2,1,0.00,,,0.00,WUHU216HW,2013-07-14 08:58:00,
2013-07-14 05:03:00,71.6,12.2,30.22,North,0,0.0,0.2,1,0.00,,,0.00,WUHU216HW,2013-07-14 09:03:00,
2013-07-14 05:08:00,71.6,12.2,30.22,North,0,0.0,0.0,1,0.00,,,0.00,WUHU216HW,2013-07-14 09:08:00,
2013-07-14 05:13:00,71.6,12.2,30.22,North,0,0.0,0.0,1,0.00,,,0.00,WUHU216HW,2013-07-14 09:13:00,
2013-07-14 05:18:00,71.6,12.2,30.22,North,0,0.0,0.0,1,0.00,,,0.00,WUHU216HW,2013-07-14 09:18:00,
2013-07-14 05:23:00,71.6,12.2,30.22,North,0,0.0,0.0,1,0.00,,,0.00,WUHU216HW,2013-07-14 09:23:00,
2013-07-14 05:28:00,71.6,12.2,30.22,North,0,0.0,0.0,1,0.00,,,0.00,WUHU216HW,2013-07-14 09:28:00,
2013-07-14 05:33:00,71.6,12.2,30.23,North,0,0.0,0.0,1,0.00,,,0.00,WUHU216HW,2013-07-14 09:33:00,
2013-07-14 05:38:00,71.6,12.2,30.23,North,0,0.0,0.0,1,0.00,,,0.00,WUHU216HW,2013-07-14 09:38:00,
2013-07-14 05:43:00,71.6,12.2,30.23,North,0,0.0,0.0,1,0.00,,,0.00,WUHU216HW,2013-07-14 09:43:00,
2013-07-14 05:48:00,71.6,12.2,30.23,North,0,0.0,0.0,1,0.00,,,0.00,WUHU216HW,2013-07-14 09:48:00,
2013-07-14 05:53:00,71.6,12.2,30.23,North,0,0.9,0.9,1,0.00,,,0.00,WUHU216HW,2013-07-14 09:53:00,
2013-07-14 05:58:00,71.8,12.4,30.23,North,0,0.0,0.9,1,0.00,,,0.00,WUHU216HW,2013-07-14 09:58:00,
2013-07-14 06:03:00,71.8,12.4,30.23,North,0,0.0,0.7,1,0.00,,,0.00,WUHU216HW,2013-07-14 10:03:00,
2013-07-14 06:08:00,72.0,12.5,30.23,North,0,0.0,0.0,1,0.00,,,0.00,WUHU216HW,2013-07-14 10:08:00,
2013-07-14 06:13:00,72.0,12.5,30.23,North,0,0.0,0.0,1,0.00,,,0.00,WUHU216HW,2013-07-14 10:13:00,
2013-07-14 06:18:00,72.0,12.5,30.23,North,0,0.0,0.0,1,0.00,,,0.00,WUHU216HW,2013-07-14 10:18:00,
2013-07-14 06:23:00,72.2,12.7,30.23,WSW,248,0.0,1.3,1,0.00,,,0.00,WUHU216HW,2013-07-14 10:23:00,
2013-07-14 06:28:00,72.4,12.8,30.23,WSW,248,0.0,1.3,1,0.00,,,0.00,WUHU216HW,2013-07-14 10:28:00,
2013-07-14 06:33:00,72.4,12.8,30.23,WSW,248,0.4,0.4,1,0.00,,,0.00,WUHU216HW,2013-07-14 10:33:00,
2013-07-14 06:38:00,72.4,12.8,30.23,WSW,248,0.0,0.4,1,0.00,,,0.00,WUHU216HW,2013-07-14 10:38:00,
2013-07-14 06:43:00,72.5,13.0,30.23,WSW,248,0.0,0.0,1,0.00,,,0.00,WUHU216HW,2013-07-14 10:43:00,
2013-07-14 06:48:00,72.9,13.2,30.23,WSW,248,0.0,0.0,1,0.00,,,0.00,WUHU216HW,2013-07-14 10:48:00,
2013-07-14 06:53:00,73.1,13.4,30.23,WSW,248,1.1,1.1,1,0.00,,,0.00,WUHU216HW,2013-07-14 10:53:00,
2013-07-14 06:58:00,73.3,13.5,30.23,SW,225,0.9,1.1,1,0.00,,,0.00,WUHU216HW,2013-07-14 10:58:00,
2013-07-14 07:03:00,73.3,13.5,30.23,SW,225,0.2,1.1,1,0.00,,,0.00,WUHU216HW,2013-07-14 11:03:00,
2013-07-14 07:08:00,73.4,13.7,30.24,SW,225,0.0,1.1,1,0.00,,,0.00,WUHU216HW,2013-07-14 11:08:00,
2013-07-14 07:13:00,73.6,13.8,30.24,SW,225,1.8,1.8,1,0.00,,,0.00,WUHU216HW,2013-07-14 11:13:00,
2013-07-14 07:18:00,73.4,13.7,30.24,SSW,203,0.0,1.8,1,0.00,,,0.00,WUHU216HW,2013-07-14 11:18:00,
2013-07-14 07:23:00,73.4,13.7,30.24,SW,225,1.1,1.3,1,0.00,,,0.00,WUHU216HW,2013-07-14 11:23:00,
2013-07-14 07:28:00,73.3,13.5,30.24,SW,225,1.1,1.1,1,0.00,,,0.00,WUHU216HW,2013-07-14 11:28:00,
2013-07-14 07:33:00,73.3,13.5,30.24,WSW,248,1.8,1.8,1,0.00,,,0.00,WUHU216HW,2013-07-14 11:33:00,
2013-07-14 07:38:00,73.3,13.5,30.24,WSW,248,1.1,1.8,1,0.00,,,0.00,WUHU216HW,2013-07-14 11:38:00,
2013-07-14 07:43:00,73.3,13.5,30.24,SSW,203,0.9,1.8,1,0.00,,,0.00,WUHU216HW,2013-07-14 11:43:00,
2013-07-14 07:48:00,73.4,13.7,30.24,SW,225,0.0,2.5,1,0.00,,,0.00,WUHU216HW,2013-07-14 11:48:00,
2013-07-14 07:53:00,73.4,13.7,30.24,SW,225,0.7,2.5,1,0.00,,,0.00,WUHU216HW,2013-07-14 11:53:00,
2013-07-14 07:58:00,73.8,14.0,30.24,SW,225,0.4,1.8,1,0.00,,,0.00,WUHU216HW,2013-07-14 11:58:00,
2013-07-14 08:03:00,74.0,14.0,30.24,SW,225,0.0,1.1,1,0.00,,,0.00,WUHU216HW,2013-07-14 12:03:00,
2013-07-14 08:08:00,74.5,14.4,30.24,South,180,1.3,1.8,1,0.00,,,0.00,WUHU216HW,2013-07-14 12:08:00,
2013-07-14 08:13:00,75.2,14.9,30.24,SSW,203,0.9,2.0,1,0.00,,,0.00,WUHU216HW,2013-07-14 12:13:00,
2013-07-14 08:18:00,75.8,15.4,30.25,SW,225,2.0,2.0,1,0.00,,,0.00,WUHU216HW,2013-07-14 12:18:00,
2013-07-14 08:23:00,76.3,15.9,30.24,SW,225,2.2,2.2,1,0.00,,,0.00,WUHU216HW,2013-07-14 12:23:00,
2013-07-14 08:28:00,77.4,16.7,30.24,SW,225,1.1,3.4,1,0.00,,,0.00,WUHU216HW,2013-07-14 12:28:00,
2013-07-14 08:33:00,78.5,17.4,30.24,SSW,203,1.1,3.4,1,0.00,,,0.00,WUHU216HW,2013-07-14 12:33:00,
2013-07-14 08:38:00,79.6,18.2,30.24,WSW,248,0.9,1.8,1,0.00,,,0.00,WUHU216HW,2013-07-14 12:38:00,
2013-07-14 08:43:00,80.1,18.6,30.24,SSW,203,1.1,1.8,1,0.00,,,0.00,WUHU216HW,2013-07-14 12:43:00,
2013-07-14 08:48:00,79.9,18.6,30.24,SSW,203,0.0,1.8,1,0.00,,,0.00,WUHU216HW,2013-07-14 12:48:00,
2013-07-14 08:53:00,79.6,18.2,30.24,WSW,248,0.7,1.1,1,0.00,,,0.00,WUHU216HW,2013-07-14 12:53:00,
2013-07-14 08:58:00,79.0,17.8,30.24,WSW,248,0.7,0.9,1,0.00,,,0.00,WUHU216HW,2013-07-14 12:58:00,
2013-07-14 09:03:00,79.6,18.2,30.23,WSW,248,0.4,0.7,1,0.00,,,0.00,WUHU216HW,2013-07-14 13:03:00,
2013-07-14 09:08:00,79.9,18.6,30.23,SSW,203,1.6,2.0,1,0.00,,,0.00,WUHU216HW,2013-07-14 13:08:00,
2013-07-14 09:13:00,80.5,18.9,30.23,NE,45,0.4,2.0,1,0.00,,,0.00,WUHU216HW,2013-07-14 13:13:00,
2013-07-14 09:18:00,81.7,20.0,30.23,SW,225,0.4,2.2,1,0.00,,,0.00,WUHU216HW,2013-07-14 13:18:00,
2013-07-14 09:23:00,83.0,20.9,30.23,WSW,248,1.6,2.7,1,0.00,,,0.00,WUHU216HW,2013-07-14 13:23:00,
2013-07-14 09:28:00,83.2,21.1,30.23,ESE,113,0.7,2.7,1,0.00,,,0.00,WUHU216HW,2013-07-14 13:28:00,
2013-07-14 09:33:00,82.8,20.8,30.23,SSW,203,1.6,3.4,1,0.00,,,0.00,WUHU216HW,2013-07-14 13:33:00,
2013-07-14 09:38:00,83.0,20.9,30.24,East,90,1.1,3.4,1,0.00,,,0.00,WUHU216HW,2013-07-14 13:38:00,
2013-07-14 09:43:00,84.6,22.1,30.24,NE,45,3.4,3.4,1,0.00,,,0.00,WUHU216HW,2013-07-14 13:43:00,
2013-07-14 09:48:00,84.1,21.7,30.24,WSW,248,1.1,3.4,1,0.00,,,0.00,WUHU216HW,2013-07-14 13:48:00,
2013-07-14 09:53:00,84.4,22.0,30.24,SW,225,0.4,1.3,1,0.00,,,0.00,WUHU216HW,2013-07-14 13:53:00,
2013-07-14 09:58:00,85.1,22.5,30.24,SW,225,3.4,4.7,1,0.00,,,0.00,WUHU216HW,2013-07-14 13:58:00,
2013-07-14 10:03:00,85.1,22.5,30.24,South,180,2.5,4.7,1,0.00,,,0.00,WUHU216HW,2013-07-14 14:03:00,
2013-07-14 10:08:00,85.0,22.3,30.24,SW,225,0.0,2.5,1,0.00,,,0.00,WUHU216HW,2013-07-14 14:08:00,
2013-07-14 10:13:00,85.1,22.5,30.24,SSE,158,0.9,1.1,1,0.00,,,0.00,WUHU216HW,2013-07-14 14:13:00,
2013-07-14 10:18:00,85.3,22.7,30.24,NE,45,5.1,5.1,1,0.00,,,0.00,WUHU216HW,2013-07-14 14:18:00,
2013-07-14 10:23:00,85.0,22.3,30.24,SW,225,1.8,5.1,1,0.00,,,0.00,WUHU216HW,2013-07-14 14:23:00,
2013-07-14 10:28:00,85.7,23.0,30.24,SW,225,1.6,5.1,1,0.00,,,0.00,WUHU216HW,2013-07-14 14:28:00,
2013-07-14 10:33:00,86.8,23.8,30.24,West,270,3.1,3.1,1,0.00,,,0.00,WUHU216HW,2013-07-14 14:33:00,
2013-07-14 10:38:00,86.6,23.7,30.24,North,0,1.1,3.1,1,0.00,,,0.00,WUHU216HW,2013-07-14 14:38:00,
2013-07-14 10:43:00,86.4,23.5,30.24,NW,315,0.9,2.5,1,0.00,,,0.00,WUHU216HW,2013-07-14 14:43:00,
2013-07-14 10:48:00,87.1,24.1,30.24,ENE,68,2.0,2.5,1,0.00,,,0.00,WUHU216HW,2013-07-14 14:48:00,
2013-07-14 10:53:00,88.0,24.8,30.24,West,270,0.9,2.5,1,0.00,,,0.00,WUHU216HW,2013-07-14 14:53:00,
2013-07-14 10:58:00,88.0,24.8,30.24,WSW,248,1.1,1.8,1,0.00,,,0.00,WUHU216HW,2013-07-14 14:58:00,
2013-07-14 11:03:00,87.8,24.7,30.24,WNW,293,1.3,1.3,1,0.00,,,0.00,WUHU216HW,2013-07-14 15:03:00,
2013-07-14 11:08:00,87.8,24.7,30.23,North,0,1.1,1.3,1,0.00,,,0.00,WUHU216HW,2013-07-14 15:08:00,
2013-07-14 11:14:00,87.7,24.5,30.23,ENE,68,0.9,2.9,1,0.00,,,0.00,WUHU216HW,2013-07-14 15:14:00,
2013-07-14 11:19:00,87.7,24.5,30.23,SSW,203,1.8,2.9,1,0.00,,,0.00,WUHU216HW,2013-07-14 15:19:00,
2013-07-14 11:24:00,88.4,25.0,30.23,SW,225,1.6,3.8,1,0.00,,,0.00,WUHU216HW,2013-07-14 15:24:00,
2013-07-14 11:29:00,89.1,25.6,30.23,North,0,2.2,2.2,1,0.00,,,0.00,WUHU216HW,2013-07-14 15:29:00,
2013-07-14 11:34:00,88.9,25.4,30.23,NE,45,0.4,2.2,1,0.00,,,0.00,WUHU216HW,2013-07-14 15:34:00,
2013-07-14 11:39:00,88.7,25.3,30.23,WSW,248,1.1,1.1,1,0.00,,,0.00,WUHU216HW,2013-07-14 15:39:00,
2013-07-14 11:44:00,89.3,25.7,30.23,WSW,248,0.2,1.1,1,0.00,,,0.00,WUHU216HW,2013-07-14 15:44:00,
2013-07-14 11:49:00,88.9,25.4,30.23,WSW,248,0.9,1.6,1,0.00,,,0.00,WUHU216HW,2013-07-14 15:49:00,
2013-07-14 11:54:00,88.7,25.3,30.23,ENE,68,0.7,1.6,1,0.00,,,0.00,WUHU216HW,2013-07-14 15:54:00,
2013-07-14 11:59:00,89.5,25.8,30.23,SSE,158,1.1,1.8,1,0.00,,,0.00,WUHU216HW,2013-07-14 15:59:00,
2013-07-14 12:04:00,90.4,26.5,30.23,East,90,1.8,2.5,1,0.00,,,0.00,WUHU216HW,2013-07-14 16:04:00,
2013-07-14 12:09:00,89.5,25.8,30.23,NE,45,1.8,2.5,1,0.00,,,0.00,WUHU216HW,2013-07-14 16:09:00,
2013-07-14 12:14:00,87.8,24.7,30.23,NE,45,0.9,2.2,1,0.00,,,0.00,WUHU216HW,2013-07-14 16:14:00,
2013-07-14 12:19:00,87.8,24.7,30.23,WNW,293,1.3,2.0,1,0.00,,,0.00,WUHU216HW,2013-07-14 16:19:00,
2013-07-14 12:24:00,88.2,24.9,30.22,NE,45,1.1,2.5,1,0.00,,,0.00,WUHU216HW,2013-07-14 16:24:00,
2013-07-14 12:29:00,88.0,24.8,30.22,ENE,68,0.4,2.5,1,0.00,,,0.00,WUHU216HW,2013-07-14 16:29:00,
2013-07-14 12:34:00,88.0,24.8,30.22,WSW,248,0.4,1.8,1,0.00,,,0.00,WUHU216HW,2013-07-14 16:34:00,
2013-07-14 12:39:00,88.7,25.3,30.22,WNW,293,0.7,0.9,1,0.00,,,0.00,WUHU216HW,2013-07-14 16:39:00,
2013-07-14 12:44:00,88.9,25.4,30.22,SW,225,2.0,3.1,1,0.00,,,0.00,WUHU216HW,2013-07-14 16:44:00,
2013-07-14 12:49:00,88.9,25.4,30.22,SSW,203,0.9,3.1,1,0.00,,,0.00,WUHU216HW,2013-07-14 16:49:00,
2013-07-14 12:54:00,89.8,26.1,30.22,SSW,203,0.4,2.0,1,0.00,,,0.00,WUHU216HW,2013-07-14 16:54:00,
2013-07-14 12:59:00,90.2,26.4,30.22,SSW,203,0.4,1.1,1,0.00,,,0.00,WUHU216HW,2013-07-14 16:59:00,
2013-07-14 13:04:00,90.5,26.6,30.21,SW,225,0.2,1.1,1,0.00,,,0.00,WUHU216HW,2013-07-14 17:04:00,
2013-07-14 13:09:00,90.5,26.6,30.21,NW,315,0.4,1.6,3,0.00,,,0.00,WUHU216HW,2013-07-14 17:09:00,
2013-07-14 13:14:00,90.2,26.4,30.21,SSW,203,0.7,1.8,1,0.00,,,0.00,WUHU216HW,2013-07-14 17:14:00,
2013-07-14 13:19:00,90.2,29.9,30.21,South,180,1.8,2.2,12,0.00,,,0.00,WUHU216HW,2013-07-14 17:19:00,
2013-07-14 13:24:00,90.2,26.4,30.22,SW,225,1.8,2.2,3,0.00,,,0.00,WUHU216HW,2013-07-14 17:24:00,
2013-07-14 13:29:00,90.2,26.4,30.21,NE,45,1.1,2.0,1,0.00,,,0.00,WUHU216HW,2013-07-14 17:29:00,
2013-07-14 13:34:00,90.7,28.5,30.21,SW,225,0.4,2.0,11,0.00,,,0.00,WUHU216HW,2013-07-14 17:34:00,
2013-07-14 13:39:00,90.5,46.4,30.21,NNW,338,1.1,1.6,22,0.00,,,0.00,WUHU216HW,2013-07-14 17:39:00,
2013-07-14 13:44:00,89.1,25.6,30.21,NNW,338,0.7,1.1,7,0.00,,,0.00,WUHU216HW,2013-07-14 17:44:00,
2013-07-14 13:49:00,88.9,25.4,30.21,SSW,203,0.4,0.7,1,0.00,,,0.00,WUHU216HW,2013-07-14 17:49:00,
2013-07-14 13:54:00,89.6,25.9,30.20,WSW,248,1.1,1.1,1,0.00,,,0.00,WUHU216HW,2013-07-14 17:54:00,
2013-07-14 13:59:00,90.0,26.2,30.20,WSW,248,1.1,1.1,1,0.00,,,0.00,WUHU216HW,2013-07-14 17:59:00,
2013-07-14 14:04:00,90.2,43.7,30.20,WNW,293,1.8,1.8,20,0.00,,,0.00,WUHU216HW,2013-07-14 18:04:00,
2013-07-14 14:09:00,90.0,34.9,30.20,ENE,68,1.1,1.8,15,0.00,,,0.00,WUHU216HW,2013-07-14 18:09:00,
2013-07-14 14:14:00,90.4,26.5,30.20,SSE,158,2.9,2.9,10,0.00,,,0.00,WUHU216HW,2013-07-14 18:14:00,
2013-07-14 14:19:00,90.4,30.0,30.20,WSW,248,0.4,2.9,12,0.00,,,0.00,WUHU216HW,2013-07-14 18:19:00,
2013-07-14 14:24:00,90.7,26.8,30.20,SSW,203,1.3,2.7,5,0.00,,,0.00,WUHU216HW,2013-07-14 18:24:00,
2013-07-14 14:29:00,91.4,30.9,30.20,West,270,0.7,2.7,12,0.00,,,0.00,WUHU216HW,2013-07-14 18:29:00,
2013-07-14 14:34:00,91.8,27.6,30.20,SSE,158,1.8,1.8,3,0.00,,,0.00,WUHU216HW,2013-07-14 18:34:00,
2013-07-14 14:39:00,92.2,36.6,30.20,WSW,248,0.4,1.8,15,0.00,,,0.00,WUHU216HW,2013-07-14 18:39:00,
2013-07-14 14:44:00,91.8,36.4,30.20,WSW,248,1.8,1.8,15,0.00,,,0.00,WUHU216HW,2013-07-14 18:44:00,
2013-07-14 14:49:00,92.0,27.7,30.20,SSE,158,1.6,2.5,8,0.00,,,0.00,WUHU216HW,2013-07-14 18:49:00,
2013-07-14 14:54:00,91.3,34.2,30.20,NNW,338,1.1,2.5,14,0.00,,,0.00,WUHU216HW,2013-07-14 18:54:00,
2013-07-14 14:59:00,91.3,27.2,30.19,WNW,293,0.7,2.5,8,0.00,,,0.00,WUHU216HW,2013-07-14 18:59:00,
2013-07-14 15:04:00,90.9,28.7,30.19,South,180,0.4,2.5,11,0.00,,,0.00,WUHU216HW,2013-07-14 19:04:00,
2013-07-14 15:09:00,90.7,26.8,30.19,South,180,0.2,1.3,5,0.00,,,0.00,WUHU216HW,2013-07-14 19:09:00,
2013-07-14 15:14:00,90.9,26.9,30.19,South,180,0.0,0.4,8,0.00,,,0.00,WUHU216HW,2013-07-14 19:14:00,
2013-07-14 15:19:00,90.9,47.9,30.18,NNW,338,0.7,1.3,23,0.00,,,0.00,WUHU216HW,2013-07-14 19:19:00,
2013-07-14 15:24:00,91.3,29.0,30.18,West,270,0.7,1.8,11,0.00,,,0.00,WUHU216HW,2013-07-14 19:24:00,
2013-07-14 15:29:00,91.8,31.2,30.18,SSW,203,1.3,1.8,12,0.00,,,0.00,WUHU216HW,2013-07-14 19:29:00,
2013-07-14 15:34:00,92.2,29.6,30.18,SSW,203,0.7,1.8,11,0.00,,,0.00,WUHU216HW,2013-07-14 19:34:00,
2013-07-14 15:39:00,92.3,31.5,30.18,South,180,0.9,1.8,12,0.00,,,0.00,WUHU216HW,2013-07-14 19:39:00,
2013-07-14 15:44:00,92.5,33.4,30.17,SSE,158,0.9,2.5,13,0.00,,,0.00,WUHU216HW,2013-07-14 19:44:00,
2013-07-14 15:49:00,92.5,36.9,30.17,WSW,248,1.3,2.5,15,0.00,,,0.00,WUHU216HW,2013-07-14 19:49:00,
2013-07-14 15:54:00,92.2,40.2,30.17,NNW,338,0.4,1.6,17,0.00,,,0.00,WUHU216HW,2013-07-14 19:54:00,
2013-07-14 15:59:00,91.6,38.0,30.17,SW,225,1.6,1.6,16,0.00,,,0.00,WUHU216HW,2013-07-14 19:59:00,
2013-07-14 16:04:00,91.8,29.3,30.17,SE,135,0.4,1.8,11,0.00,,,0.00,WUHU216HW,2013-07-14 20:04:00,
2013-07-14 16:09:00,91.8,43.4,30.17,SW,225,0.4,2.7,19,0.00,,,0.00,WUHU216HW,2013-07-14 20:09:00,
2013-07-14 16:14:00,91.4,39.6,30.17,SSW,203,1.8,2.7,17,0.00,,,0.00,WUHU216HW,2013-07-14 20:14:00,
2013-07-14 16:19:00,90.4,37.0,30.17,SSE,158,0.0,1.8,16,0.00,,,0.00,WUHU216HW,2013-07-14 20:19:00,
2013-07-14 16:24:00,89.6,20.1,30.17,SSW,203,1.6,1.6,8,0.00,,,0.00,WUHU216HW,2013-07-14 20:24:00,
2013-07-14 16:29:00,89.3,25.7,30.17,SSE,158,2.2,2.2,8,0.00,,,0.00,WUHU216HW,2013-07-14 20:29:00,
2013-07-14 16:35:00,88.4,25.0,30.17,South,180,2.2,2.2,2,0.00,,,0.00,WUHU216HW,2013-07-14 20:35:00,
2013-07-14 16:40:00,87.8,24.7,30.17,South,180,3.4,4.0,1,0.00,,,0.00,WUHU216HW,2013-07-14 20:40:00,
2013-07-14 16:45:00,87.8,24.7,30.17,NW,315,0.2,4.0,1,0.00,,,0.00,WUHU216HW,2013-07-14 20:45:00,
2013-07-14 16:50:00,87.8,24.7,30.17,SW,225,0.2,3.4,1,0.00,,,0.00,WUHU216HW,2013-07-14 20:50:00,
2013-07-14 17:00:00,87.5,24.4,30.16,SSW,203,1.1,2.7,1,0.00,,,0.00,WUHU216HW,2013-07-14 21:00:00,
2013-07-14 17:05:00,87.3,24.2,30.16,SSE,158,0.4,1.3,1,0.00,,,0.00,WUHU216HW,2013-07-14 21:05:00,
2013-07-14 17:10:00,87.5,24.4,30.16,SSW,203,0.7,1.6,1,0.00,,,0.00,WUHU216HW,2013-07-14 21:10:00,
2013-07-14 17:15:00,87.5,24.4,30.16,SSW,203,0.9,1.8,1,0.00,,,0.00,WUHU216HW,2013-07-14 21:15:00,
2013-07-14 17:20:00,87.3,24.2,30.16,West,270,0.0,1.8,1,0.00,,,0.00,WUHU216HW,2013-07-14 21:20:00,
2013-07-14 17:25:00,87.3,24.2,30.16,WSW,248,0.4,0.7,1,0.00,,,0.00,WUHU216HW,2013-07-14 21:25:00,
2013-07-14 17:30:00,87.1,24.1,30.16,South,180,0.0,0.7,1,0.00,,,0.00,WUHU216HW,2013-07-14 21:30:00,
2013-07-14 17:35:00,86.8,23.8,30.16,SSW,203,1.8,3.8,1,0.00,,,0.00,WUHU216HW,2013-07-14 21:35:00,
2013-07-14 17:40:00,86.8,23.8,30.16,SSW,203,1.1,3.8,1,0.00,,,0.00,WUHU216HW,2013-07-14 21:40:00,
2013-07-14 17:45:00,86.6,23.7,30.15,South,180,0.4,1.8,1,0.00,,,0.00,WUHU216HW,2013-07-14 21:45:00,
2013-07-14 17:50:00,86.6,23.7,30.16,SW,225,1.8,1.8,1,0.00,,,0.00,WUHU216HW,2013-07-14 21:50:00,
2013-07-14 17:55:00,86.6,23.7,30.15,ESE,113,1.1,1.8,1,0.00,,,0.00,WUHU216HW,2013-07-14 21:55:00,
2013-07-14 18:00:00,86.6,23.7,30.15,NW,315,1.6,1.8,1,0.00,,,0.00,WUHU216HW,2013-07-14 22:00:00,
2013-07-14 18:05:00,86.4,23.5,30.15,SW,225,1.8,1.8,1,0.00,,,0.00,WUHU216HW,2013-07-14 22:05:00,
2013-07-14 18:10:00,86.4,23.5,30.15,South,180,1.3,1.8,1,0.00,,,0.00,WUHU216HW,2013-07-14 22:10:00,
2013-07-14 18:15:00,86.2,23.4,30.15,SW,225,1.3,1.3,1,0.00,,,0.00,WUHU216HW,2013-07-14 22:15:00,
2013-07-14 18:20:00,86.0,23.2,30.15,SW,225,2.9,2.9,1,0.00,,,0.00,WUHU216HW,2013-07-14 22:20:00,
2013-07-14 18:25:00,85.9,23.0,30.15,WNW,293,0.0,2.9,1,0.00,,,0.00,WUHU216HW,2013-07-14 22:25:00,
2013-07-14 18:30:00,85.7,23.0,30.15,SSW,203,0.9,1.6,1,0.00,,,0.00,WUHU216HW,2013-07-14 22:30:00,
2013-07-14 18:35:00,85.3,22.7,30.15,SSW,203,0.4,1.3,1,0.00,,,0.00,WUHU216HW,2013-07-14 22:35:00,
2013-07-14 18:40:00,85.1,22.5,30.15,SW,225,0.2,0.9,1,0.00,,,0.00,WUHU216HW,2013-07-14 22:40:00,
2013-07-14 18:45:00,85.1,22.5,30.15,South,180,2.5,2.5,1,0.00,,,0.00,WUHU216HW,2013-07-14 22:45:00,
2013-07-14 18:50:00,84.8,22.2,30.15,WSW,248,0.9,2.5,1,0.00,,,0.00,WUHU216HW,2013-07-14 22:50:00,
2013-07-14 18:55:00,84.6,22.1,30.15,SSW,203,0.9,1.8,1,0.00,,,0.00,WUHU216HW,2013-07-14 22:55:00,
2013-07-14 19:00:00,84.4,22.0,30.15,SSW,203,0.0,1.8,1,0.00,,,0.00,WUHU216HW,2013-07-14 23:00:00,
2013-07-14 19:06:00,84.1,21.7,30.15,SSW,203,0.0,0.9,1,0.00,,,0.00,WUHU216HW,2013-07-14 23:06:00,
2013-07-14 19:11:00,83.5,21.2,30.15,SSW,203,0.0,0.4,1,0.00,,,0.00,WUHU216HW,2013-07-14 23:11:00,
2013-07-14 19:16:00,83.5,21.2,30.15,SSW,203,0.0,0.0,1,0.00,,,0.00,WUHU216HW,2013-07-14 23:16:00,
2013-07-14 19:21:00,83.7,21.4,30.15,SSW,203,0.0,0.0,1,0.00,,,0.00,WUHU216HW,2013-07-14 23:21:00,
2013-07-14 19:26:00,83.7,21.4,30.15,SSW,203,0.4,1.3,1,0.00,,,0.00,WUHU216HW,2013-07-14 23:26:00,
2013-07-14 19:31:00,83.5,21.2,30.15,SSW,203,0.0,1.3,1,0.00,,,0.00,WUHU216HW,2013-07-14 23:31:00,
2013-07-14 19:36:00,83.2,21.1,30.15,SSW,203,0.0,0.0,1,0.00,,,0.00,WUHU216HW,2013-07-14 23:36:00,
2013-07-14 19:41:00,82.8,20.8,30.15,SSW,203,0.0,0.0,1,0.00,,,0.00,WUHU216HW,2013-07-14 23:41:00,
2013-07-14 19:46:00,82.4,20.5,30.15,SSW,203,0.0,0.0,1,0.00,,,0.00,WUHU216HW,2013-07-14 23:46:00,
2013-07-14 19:51:00,82.1,20.3,30.15,SSW,203,0.0,0.0,1,0.00,,,0.00,WUHU216HW,2013-07-14 23:51:00,
2013-07-14 19:56:00,81.9,20.1,30.15,SSW,203,0.0,0.0,1,0.00,,,0.00,WUHU216HW,2013-07-14 23:56:00,
2013-07-14 20:01:00,81.5,19.8,30.15,SSW,203,0.0,0.0,1,0.00,,,0.00,WUHU216HW,2013-07-15 00:01:00,
2013-07-14 20:06:00,81.0,19.4,30.15,SSW,203,0.0,0.0,1,0.00,,,0.00,WUHU216HW,2013-07-15 00:06:00,
2013-07-14 20:11:00,80.5,18.9,30.15,SSW,203,0.0,0.0,1,0.00,,,0.00,WUHU216HW,2013-07-15 00:11:00,
2013-07-14 20:16:00,80.3,18.8,30.15,SSW,203,0.0,0.0,1,0.00,,,0.00,WUHU216HW,2013-07-15 00:16:00,
2013-07-14 20:21:00,79.9,18.6,30.15,SSW,203,0.0,0.0,1,0.00,,,0.00,WUHU216HW,2013-07-15 00:21:00,
2013-07-14 20:26:00,79.6,18.2,30.15,SSW,203,0.0,0.0,1,0.00,,,0.00,WUHU216HW,2013-07-15 00:26:00,
2013-07-14 20:31:00,79.0,17.8,30.15,SSW,203,0.0,0.0,1,0.00,,,0.00,WUHU216HW,2013-07-15 00:31:00,
2013-07-14 20:36:00,78.7,17.6,30.15,SSW,203,0.0,0.0,1,0.00,,,0.00,WUHU216HW,2013-07-15 00:36:00,
2013-07-14 20:41:00,78.5,17.4,30.15,SSW,203,0.0,0.0,1,0.00,,,0.00,WUHU216HW,2013-07-15 00:41:00,
2013-07-14 20:46:00,77.9,17.0,30.15,SSW,203,0.0,0.0,1,0.00,,,0.00,WUHU216HW,2013-07-15 00:46:00,
2013-07-14 20:51:00,77.6,16.7,30.15,SSW,203,0.0,0.0,1,0.00,,,0.00,WUHU216HW,2013-07-15 00:51:00,
2013-07-14 20:56:00,77.4,16.7,30.16,SSW,203,0.0,0.0,1,0.00,,,0.00,WUHU216HW,2013-07-15 00:56:00,
2013-07-14 21:01:00,76.9,16.2,30.16,SSW,203,0.0,0.0,1,0.00,,,0.00,WUHU216HW,2013-07-15 01:01:00,
2013-07-14 21:06:00,76.5,15.9,30.16,SSW,203,0.0,0.0,1,0.00,,,0.00,WUHU216HW,2013-07-15 01:06:00,
2013-07-14 21:11:00,76.3,15.9,30.16,SSW,203,0.0,0.0,1,0.00,,,0.00,WUHU216HW,2013-07-15 01:11:00,
2013-07-14 21:16:00,76.0,15.5,30.16,SSW,203,0.0,0.0,1,0.00,,,0.00,WUHU216HW,2013-07-15 01:16:00,
2013-07-14 21:21:00,75.6,15.2,30.16,SSW,203,0.0,0.0,1,0.00,,,0.00,WUHU216HW,2013-07-15 01:21:00,
2013-07-14 21:26:00,75.4,15.1,30.16,SSW,203,0.0,0.0,1,0.00,,,0.00,WUHU216HW,2013-07-15 01:26:00,
2013-07-14 21:31:00,75.2,14.9,30.16,SSW,203,0.0,0.0,1,0.00,,,0.00,WUHU216HW,2013-07-15 01:31:00,
2013-07-14 21:36:00,75.1,14.9,30.16,SSW,203,0.0,0.0,1,0.00,,,0.00,WUHU216HW,2013-07-15 01:36:00,
2013-07-14 21:41:00,74.9,14.7,30.16,SSW,203,0.0,0.0,1,0.00,,,0.00,WUHU216HW,2013-07-15 01:41:00,
2013-07-14 21:46:00,74.7,14.6,30.16,SSW,203,0.0,0.0,1,0.00,,,0.00,WUHU216HW,2013-07-15 01:46:00,
2013-07-14 21:51:00,74.5,14.4,30.17,SSW,203,0.0,0.0,1,0.00,,,0.00,WUHU216HW,2013-07-15 01:51:00,
2013-07-14 21:56:00,74.5,14.4,30.17,SSW,203,0.0,0.0,1,0.00,,,0.00,WUHU216HW,2013-07-15 01:56:00,
2013-07-14 22:01:00,74.3,14.3,30.17,SSW,203,0.0,0.0,1,0.00,,,0.00,WUHU216HW,2013-07-15 02:01:00,
2013-07-14 22:06:00,74.2,14.2,30.17,SSW,203,0.0,0.0,1,0.00,,,0.00,WUHU216HW,2013-07-15 02:06:00,
2013-07-14 22:11:00,74.2,14.2,30.17,SSW,203,0.0,0.0,1,0.00,,,0.00,WUHU216HW,2013-07-15 02:11:00,
2013-07-14 22:16:00,74.2,14.2,30.17,SSW,203,0.0,0.0,1,0.00,,,0.00,WUHU216HW,2013-07-15 02:16:00,
2013-07-14 22:21:00,74.0,14.0,30.17,SSW,203,0.0,0.0,1,0.00,,,0.00,WUHU216HW,2013-07-15 02:21:00,
2013-07-14 22:26:00,74.0,14.0,30.16,SSW,203,0.0,0.0,1,0.00,,,0.00,WUHU216HW,2013-07-15 02:26:00,
2013-07-14 22:31:00,74.0,14.0,30.16,SSW,203,0.0,0.0,1,0.00,,,0.00,WUHU216HW,2013-07-15 02:31:00,
2013-07-14 22:36:00,73.8,14.0,30.16,SSW,203,0.0,0.0,1,0.00,,,0.00,WUHU216HW,2013-07-15 02:36:00,
2013-07-14 22:41:00,73.8,14.0,30.16,SSW,203,0.0,0.0,1,0.00,,,0.00,WUHU216HW,2013-07-15 02:41:00,
2013-07-14 22:46:00,73.8,14.0,30.16,SSW,203,0.0,0.0,1,0.00,,,0.00,WUHU216HW,2013-07-15 02:46:00,
2013-07-14 22:51:00,73.6,13.8,30.16,SSW,203,0.0,0.0,1,0.00,,,0.00,WUHU216HW,2013-07-15 02:51:00,
2013-07-14 22:56:00,73.6,13.8,30.16,SSW,203,0.0,0.0,1,0.00,,,0.00,WUHU216HW,2013-07-15 02:56:00,
2013-07-14 23:01:00,73.6,13.8,30.16,SSW,203,0.0,0.0,1,0.00,,,0.00,WUHU216HW,2013-07-15 03:01:00,
2013-07-14 23:06:00,73.4,13.7,30.16,SSW,203,0.0,0.0,1,0.00,,,0.00,WUHU216HW,2013-07-15 03:06:00,
2013-07-14 23:11:00,73.3,13.5,30.16,SSW,203,0.0,0.0,1,0.00,,,0.00,WUHU216HW,2013-07-15 03:11:00,
2013-07-14 23:16:00,73.1,13.4,30.16,SSW,203,0.0,0.0,1,0.00,,,0.00,WUHU216HW,2013-07-15 03:16:00,
2013-07-14 23:21:00,73.1,13.4,30.16,SSW,203,0.0,0.0,1,0.00,,,0.00,WUHU216HW,2013-07-15 03:21:00,
2013-07-14 23:26:00,73.1,13.4,30.16,SSW,203,0.0,0.0,1,0.00,,,0.00,WUHU216HW,2013-07-15 03:26:00,
2013-07-14 23:31:00,72.9,13.2,30.16,SSW,203,0.0,0.0,1,0.00,,,0.00,WUHU216HW,2013-07-15 03:31:00,
2013-07-14 23:36:00,72.9,13.2,30.16,SSW,203,0.0,0.0,1,0.00,,,0.00,WUHU216HW,2013-07-15 03:36:00,
2013-07-14 23:41:00,72.7,13.2,30.16,SSW,203,0.0,0.0,1,0.00,,,0.00,WUHU216HW,2013-07-15 03:41:00,
2013-07-14 23:46:00,72.7,13.2,30.16,SSW,203,0.0,0.0,1,0.00,,,0.00,WUHU216HW,2013-07-15 03:46:00,
2013-07-14 23:51:00,72.7,13.2,30.16,SSW,203,0.0,0.0,1,0.00,,,0.00,WUHU216HW,2013-07-15 03:51:00,
2013-07-14 23:56:00,72.7,13.2,30.16,SSW,203,0.0,0.0,1,0.00,,,0.00,WUHU216HW,2013-07-15 03:56:00,